Terug naar catalogus

CZ-3B Y111 STAGE 3

ActiefPO
NORAD 66176·ROCKET BODY·🇨🇳 China
Deze satellietnaam is nog niet bevestigd door officiële bronnen.

Gelanceerd Oct 26, 2025 vanaf Xichang Satellite Launch Center

Loading…

Volgende Passages (komende 24 uur)

TLE

VersSource: Space-Track

Epoch: Sep 14, 2026, 04:59 UTC

1 66176U 25242B   26257.20765044  .00066206  00000-0  45900-3 0  9992
2 66176  97.4144 346.6546 0049424 290.2619  69.3335 15.72538832 50203

Volg CZ-3B Y111 STAGE 3 in realtime met AllMySat

Download on the App Store